DJIBOUTI 1B

Last updated on Tue Jan 21 2025 00:02:04 GMT+0000 (Coordinated Universal Time)

1 62402U 24247AB 25020.49426935 .00032282 00000+0 14417-2 0 9999 2 62402 44.9913 198.9037 0004844 181.9893 178.0968 15.20856925 4716
UTC large
Height (km)
Speed (km/s)
/
Latitude / Longitude
Inclination (degrees)
Orbital Period (minutes)
Azimuth
Elevation
Range (km)
Doppler Factor

Next 0 passes for location: London (51.5072 / 0.1276)

Sorry there are no passes over London.